Weather Service Report


192 
ASUS44 KSJT 300610
RWRSJT
WEST CENTRAL TEXAS REGIONAL WEATHER ROUNDUP
NATIONAL WEATHER SERVICE SAN ANGELO TX
100 AM CDT THU JUL 30 2015

NOTE: "FAIR" INDICATES FEW OR NO CLOUDS BELOW 12,000 FEET WITH NO
SIGNIFICANT WEATHER AND/OR OBSTRUCTIONS TO VISIBILITY.

TXZ049-054-064>066-071>073-076>078-098-099-113-114-127-128-139-140-
154-155-168>170-300700
...LOCATIONS ACROSS WEST CENTRAL TEXAS...
  
CITY           SKY/WX    TMP DP  RH WIND       PRES   REMARKS
SAN ANGELO     CLEAR     81  58  45 S5        30.08R                  
ABILENE        CLEAR     83  62  49 SE10      30.09R                  
DYESS AFB      CLEAR     83  64  53 SE8       30.07S                  
JUNCTION       CLEAR     84  65  52 S8        30.09R                  
SWEETWATER     PTCLDY    80  61  51 SE5       30.13S                  
BROWNWOOD      MOCLDY    81  63  54 SE5       30.08R                  
COLEMAN        CLEAR     81  63  54 SE5       30.09R                  
SONORA         CLEAR     82  59  44 SW3       30.14S                  
OZONA          FAIR      81  52  36 S6        30.13S                  
BRADY          CLEAR     82  61  47 E5        30.09R                  
$$

TEXAS PANHANDLE/OKLAHOMA PANHANDLE
  
CITY           SKY/WX    TMP DP  RH WIND       PRES   REMARKS
AMARILLO       CLEAR     72  69  90 NE9       30.24R                  
BORGER         CLEAR     73  69  87 NE8       30.22S                  
CANADIAN       PTCLDY    74  69  85 NE7       30.19S                  
DALHART        MOCLDY    72  67  84 NE9       30.29F                  
DUMAS          CLEAR     69  67  93 NE5       30.26S                  
GUYMON         NOT AVBL                                               
HEREFORD       MOCLDY    70  63  78 MISG      30.24F                  
PAMPA          CLEAR     72  70  92 NE8       30.23S                  
PERRYTON       NOT AVBL                                               
$$

SOUTHERN PANHANDLE/SOUTH PLAINS/ROLLING PLAINS
  
CITY           SKY/WX    TMP DP  RH WIND       PRES   REMARKS
LUBBOCK        PTCLDY    76  63  64 E5        30.18S                  
SNYDER         CLEAR     82  64  56 E5        30.12S                  
CHILDRESS      CLEAR     81  65  58 NE5       30.11R                  
SEMINOLE       HAZE      77  59  53 E6        30.17F VSB 1/4          
$$

PERMIAN BASIN
  
CITY           SKY/WX    TMP DP  RH WIND       PRES   REMARKS
MIDLAND        CLOUDY    83  64  52 N3        30.13S                  
ODESSA         MOCLDY    87  58  37 SE8       30.14S                  
WINK           PTCLDY    83  54  36 E5        30.09R                  
$$

FAR WEST/SOUTHWEST MOUNTAINS/TRANS PECOS
  
CITY           SKY/WX    TMP DP  RH WIND       PRES   REMARKS
ALPINE         MOCLDY    76  54  45 S7        30.26R                  
DRYDEN           N/A     85  58  39 VRB5      30.07R                  
EL PASO        MOCLDY    76  63  64 N5        30.18R                  
FORT STOCKTON  PTCLDY    80  52  37 SE10      30.11F                  
GUADALUPE PASS CLEAR     75  54  47 E13G23    30.29R                  
MARFA          PTCLDY    66  57  72 N5        30.25R                  
PECOS          CLEAR     80  49  34 SE6       30.07S                  
$$

DALLAS/FORT WORTH METROPLEX
  
CITY           SKY/WX    TMP DP  RH WIND       PRES   REMARKS
DFW AIRPORT    CLEAR     86  65  49 SE3       30.04R                  
FTW MEACHAM    CLEAR     88  63  43 SE9       30.04R                  
DAL-EXECUTIVE  CLEAR     82  64  54 SE3       30.04S                  
GRAND PRAIRIE  CLEAR     85  67  54 CALM      30.05S                  
ADDISON        CLEAR     86  65  48 SE5       30.06S                  
MESQUITE       CLEAR     81  63  53 CALM      30.04S                  
LANCASTER      CLEAR     80  61  52 CALM      30.05S                  
$$

NORTH CENTRAL TEXAS
  
CITY           SKY/WX    TMP DP  RH WIND       PRES   REMARKS
SHRMAN/DENISON CLEAR     86  65  48 SE7       30.06F                  
GAINESVILLE    CLEAR     80  65  60 E3        30.08S                  
BRIDGEPORT     NOT AVBL                                               
DENTON         CLEAR     81  69  67 SE5       30.04S                  
WAXAHACHIE     CLEAR     80  67  65 CALM      30.06S                  
GRANBURY       CLEAR     85  66  52 E5        30.06S                  
$$

WESTERN NORTH TEXAS
  
CITY           SKY/WX    TMP DP  RH WIND       PRES   REMARKS
WICHITA FALLS  CLEAR     80  67  64 E6        30.06R                  
VERNON         PTCLDY    85  62  45 SE3       30.08S                  
BRECKENRIDGE   CLEAR     83  62  47 SE9       30.06R                  
COMANCHE       CLEAR     80  64  57 SE6       30.08S                  
$$

CENTRAL AND SOUTH CENTRAL TEXAS
  
CITY           SKY/WX    TMP DP  RH WIND       PRES   REMARKS
AUSTIN/BERGSTM PTCLDY    80  71  74 SW6       30.05S                  
WACO           CLEAR     81  69  67 S5        30.03S                  
HILLSBORO      CLEAR     82  59  46 CALM      30.05R                  
TEMPLE         CLEAR     84  64  51 S9        30.05R                  
KILLEEN-GRAY   CLEAR     81  66  61 S6        30.06R                  
FORT HOOD      CLEAR     83  67  59 SE6       30.04S                  
GEORGETOWN     CLEAR     84  68  58 SW8       30.04S                  
LAGO VISTA     FAIR      83  69  62 S6        30.09S                  
SAN MARCOS     CLEAR     81  72  74 S6        30.07S                  
NEW BRAUNFELS    N/A     80  72  76 SW8       30.05R                  
RANDOLPH AFB   CLEAR     80  71  73 S5        30.07R                  
SAN ANTONIO    CLEAR     82  70  66 S7        30.07R                  
STINSON        CLEAR     80  72  76 S7        30.04R                  
PLEASANTON     NOT AVBL                                               
LA GRANGE      CLEAR     82  76  81 SW5       30.03S                  
GIDDINGS       CLEAR     79  71  76 CALM      30.09S                  
$$

EAST TEXAS
  
CITY           SKY/WX    TMP DP  RH WIND       PRES   REMARKS
PARIS          CLEAR     82  70  65 CALM      30.05S                  
CLARKSVILLE    NOT AVBL                                               
TYLER          CLEAR     84  69  60 CALM      30.05R                  
LONGVIEW       MOCLDY    82  73  74 CALM      30.03S                  
PALESTINE      CLEAR     79  70  72 CALM      30.05R                  
NACOGDOCHES    CLEAR     75  72  88 CALM      30.04R                  
$$

TEXAS HILL COUNTRY AND EDWARDS PLATEAU
  
CITY           SKY/WX    TMP DP  RH WIND       PRES   REMARKS
LLANO          CLEAR     84  66  54 S3        30.10R                  
HORSESHOE BAY  FAIR      84  68  58 S6        30.07R                  
KERRVILLE      CLEAR     80  71  73 SE5       30.11R                  
FREDERICKSBRG  CLEAR     79  66  64 S3        30.11R                  
ROCKSPRINGS    PTCLDY    81  68  65 SE12      30.15R                  
HONDO          CLEAR     82  70  66 SE8       30.08R                  
UVALDE         CLEAR     82  70  65 SE9       30.06R                  
DEL RIO        CLEAR     86  62  44 E10       30.02R                  
$$

SOUTHEAST TEXAS
  
CITY           SKY/WX    TMP DP  RH WIND       PRES   REMARKS
COLLEGE STN    CLEAR     82  72  71 S7        30.04S                  
CALDWELL       CLEAR     79  73  83 CALM      30.07S                  
CROCKETT       CLEAR     82  72  69 S3        30.07R                  
BRENHAM        CLEAR     83  74  75 SW5       30.05S                  
HUNTSVILLE     CLEAR     83  74  74 S5        30.04S                  
CONROE         CLEAR     85  73  67 VRB3      30.04S                  
HOUSTON BUSH   PTCLDY    85  75  72 SW5       30.04R                  
HOUSTON HOBBY  PTCLDY    82  76  81 SW5       30.03S                  
PERLAND        CLEAR     82  76  81 CALM      30.05S                  
WHARTON        NOT AVBL                                               
$$

THE UPPER TEXAS COAST
  
CITY           SKY/WX    TMP DP  RH WIND       PRES   REMARKS
ORANGE         PTCLDY    82  73  72 CALM      30.04S                  
PORT ARTHUR    PTCLDY    80  76  87 W3        30.02S                  
GALVESTON      CLEAR     84  78  82 SW5       30.04F                  
ANGLETON       CLEAR     79  77  94 CALM      30.04S                  
BAY CITY       CLEAR     79  78  98 CALM      30.05R                  
$$

TEXAS COASTAL BEND, RIO GRANDE PLAINS DEEP SOUTH TEXAS
  
CITY           SKY/WX    TMP DP  RH WIND       PRES   REMARKS
VICTORIA       CLEAR     79  78  97 SW6       30.05S                  
BEEVILLE       FAIR      76  75  98 S3        30.05S                  
ROCKPORT         N/A     82  77  84 S6        30.03S                  
PORT ARANSAS   PTCLDY    81  78  92 S5        30.04S                  
PORT LAVACA    CLEAR     79  75  89 S3        30.04S                  
CORPUS CHRISTI MOCLDY    78  73  84 S5        30.04R                  
KINGSVILLE NAS CLEAR     79  78  97 CALM      30.04R                  
COTULLA        CLEAR     84  71  65 SE10      30.03S                  
LAREDO         CLEAR     83  70  64 SE9       30.06R                  
BROWNSVILLE    CLEAR     80  76  87 SE7       30.04R                  
PORT ISABEL    CLEAR     80  76  87 SE8       30.03S                  
HEBBRONVILLE     N/A     75  71  85 E5        30.07R                  
MCALLEN        CLEAR     83  75  77 SE12      30.04R                  
WESLACO        CLEAR     80  74  82 SE7       30.03S                  
FALFURRIAS     CLEAR     77  74  89 SE5       30.04R                  
EDINBURG       CLEAR     78  73  84 SE6       30.04S                  
$$

Return to Home page


Western Regional Climate Center, wrcc@dri.edu